Date,TemperatureHighF,TemperatureAvgF,TemperatureLowF,DewpointHighF,DewpointAvgF,DewpointLowF,HumidityHigh,HumidityAvg,HumidityLow,PressureMaxIn,PressureMinIn,WindSpeedMaxMPH,WindSpeedAvgMPH,GustSpeedMaxMPH,PrecipitationSumIn
2013-7-1,87,73,65,-100,-100,-100,0,0,100,0.00,40.00,0,-999,0,0.00
2013-7-2,87,71,62,-100,-100,-100,0,0,100,0.00,40.00,0,-999,0,0.00
2013-7-3,90,75,59,-100,-100,-100,0,0,100,0.00,40.00,0,-999,0,0.00
2013-7-4,91,76,64,-100,-100,-100,0,0,100,0.00,40.00,0,-999,0,0.00
2013-7-5,94,78,65,-100,-100,-100,0,0,100,0.00,40.00,0,-999,0,0.00
2013-7-6,94,77,69,-100,-100,-100,0,0,100,0.00,40.00,0,-999,0,0.00
2013-7-7,94,80,69,-100,-100,-100,0,0,100,0.00,40.00,0,-999,0,0.00
2013-7-8,96,83,75,-100,-100,-100,0,0,100,0.00,40.00,0,-999,0,0.00
2013-7-9,99,84,73,-100,-100,-100,0,0,100,0.00,40.00,0,-999,0,0.00
2013-7-10,102,86,74,-100,-100,-100,0,0,100,0.00,40.00,0,-999,0,0.00
2013-7-11,94,83,73,-100,-100,-100,0,0,100,0.00,40.00,0,-999,0,0.00
2013-7-12,92,82,72,-100,-100,-100,0,0,100,0.00,40.00,0,-999,0,0.00
2013-7-13,88,75,62,-100,-100,-100,0,0,100,0.00,40.00,0,-999,0,0.00
2013-7-14,91,77,65,-100,-100,-100,0,0,100,0.00,40.00,0,-999,0,0.00
2013-7-15,94,82,73,-100,-100,-100,0,0,100,0.00,40.00,0,-999,0,0.00
2013-7-16,94,82,72,-100,-100,-100,0,0,100,0.00,40.00,0,-999,0,0.00
2013-7-17,98,83,72,-100,-100,-100,0,0,100,0.00,40.00,0,-999,0,0.00
2013-7-18,98,86,73,-100,-100,-100,0,0,100,0.00,40.00,0,-999,0,0.00
2013-7-19,85,73,70,-100,-100,-100,0,0,100,0.00,40.00,0,-999,0,0.00
2013-7-20,82,75,70,-100,-100,-100,0,0,100,0.00,40.00,0,-999,0,0.00
2013-7-21,86,78,71,-100,-100,-100,0,0,100,0.00,40.00,0,-999,0,0.00
2013-7-22,94,81,74,-100,-100,-100,0,0,100,0.00,40.00,0,-999,0,0.00
2013-7-23,96,82,73,-100,-100,-100,0,0,100,0.00,40.00,0,-999,0,0.00
2013-7-24,89,80,69,-100,-100,-100,0,0,100,0.00,40.00,0,-999,0,0.00
2013-7-25,87,77,71,-100,-100,-100,0,0,100,0.00,40.00,0,-999,0,0.00
2013-7-26,73,70,67,-100,-100,-100,0,0,100,0.00,40.00,0,-999,0,0.00
2013-7-27,89,74,64,-100,-100,-100,0,0,100,0.00,40.00,0,-999,0,0.00
2013-7-28,89,78,67,-100,-100,-100,0,0,100,0.00,40.00,0,-999,0,0.00
2013-7-29,87,76,69,-100,-100,-100,0,0,100,0.00,40.00,0,-999,0,0.00
2013-7-30,86,80,76,-100,-100,-100,0,0,100,0.00,40.00,0,-999,0,0.00
2013-7-31,95,81,73,-100,-100,-100,0,0,100,0.00,40.00,0,-999,0,0.00